Location: Unspecified
(43.3830°N, 0.0000°E)
Time: 13:38:13
(UTC+00:00)

Vanguard 2 - Pass Details

Date: 21 June 2019
Orbit: 553 x 2938 km, 32.9° (Epoch: 20 August)

Event Time Altitude Azimuth Distance (km) Brightness Sun altitude
Rises 11:47:39 0° 262° (W) 4,014 11.2 69.8°
Reaches altitude 10° 11:50:09 10° 255° (WSW) 3,315 11.0 69.9°
Maximum altitude 11:58:13 42° 188° (S) 2,397 11.4 70.0°
Drops below altitude 10° 12:10:54 10° 125° (SE) 5,143 12.0 70.0°
Sets 12:15:52 0° 119° (ESE) 6,434 12.3 69.8°
